📊 Raw Sensor Data

Showing records 34076 to 34100 of 84,825 total

ID Distance (ft) Battery V Battery A Int Temp (°F) Int Humid (%) Ext Temp (°F) Solar V RSSI SNR Time Stamp
50762 15.7 3.90 8 87 41 90 5.10 -71 7 08/31/2025 10:15 AM
50761 15.7 4.02 8 84 41 86 5.10 -71 7 08/31/2025 10:00 AM
50760 15.7 3.93 8 82 41 83 5.10 -70 7 08/31/2025 09:45 AM
50759 15.7 3.95 9 80 41 86 5.10 -71 7 08/31/2025 09:30 AM
50758 15.7 3.88 9 78 41 83 5.10 -71 7 08/31/2025 09:15 AM
50757 15.7 3.88 10 76 41 80 5.10 -71 8 08/31/2025 09:00 AM
50756 15.6 3.88 10 75 40 79 5.10 -70 8 08/31/2025 08:45 AM
50755 15.7 3.88 10 73 40 82 5.10 -71 7 08/31/2025 08:30 AM
50754 15.6 4.14 94 70 40 80 4.50 -71 8 08/31/2025 08:15 AM
50753 15.6 3.99 78 67 41 74 4.50 -71 8 08/31/2025 08:00 AM
50752 15.6 3.92 36 64 41 75 4.50 -74 7 08/31/2025 07:45 AM
50751 15.4 3.88 5 59 43 64 4.60 -72 7 08/31/2025 07:15 AM
50750 15.4 3.80 0 57 43 61 4.50 -72 7 08/31/2025 07:00 AM
50749 15.3 3.78 -10 56 44 58 4.60 -71 8 08/31/2025 06:45 AM
50748 15.3 3.86 -5 56 44 58 1.20 -72 8 08/31/2025 06:30 AM
50747 14.6 3.86 -5 56 44 58 0.20 -71 7 08/31/2025 06:15 AM
50746 15.3 3.86 -5 56 44 58 0.00 -71 8 08/31/2025 06:00 AM
50745 15.4 3.86 -5 56 44 58 0.00 -72 7 08/31/2025 05:45 AM
50744 15.4 3.80 -5 56 45 60 0.00 -71 7 08/31/2025 05:30 AM
50743 15.4 3.80 -5 57 45 59 0.10 -72 8 08/31/2025 05:15 AM
50742 15.6 3.80 -5 57 45 58 0.00 -72 8 08/31/2025 05:00 AM
50741 15.4 3.80 -35 58 45 60 0.00 -72 8 08/31/2025 04:45 AM
50740 15.5 3.86 -5 58 45 60 0.00 -72 7 08/31/2025 04:30 AM
50739 15.4 3.86 -5 59 45 60 0.00 -72 8 08/31/2025 04:15 AM
50738 15.4 3.86 -5 60 44 61 0.00 -72 8 08/31/2025 04:00 AM